EW9318 Weather Reports


Display with metric or nautical units.
time (UTC)temp
F
wind
direction
speed
MPH
gust
MPH
rain 1hr
in
rain 24hr
in
rain mn
in
humidity
%
barometer
mb
20260504021516 50 173 6.0 14.0 0.00 0.00 0.00 72 1005.4
20260504021016 50 162 5.0 14.0 0.00 0.00 0.00 72 1005.4
20260504020517 51 172 4.0 11.0 0.00 0.00 0.00 72 1005.5
20260504020017 51 159 4.0 10.0 0.00 0.00 0.00 71 1005.4
20260504015516 51 168 5.0 10.0 0.00 0.00 0.00 71 1005.5
20260504015016 51 169 5.0 10.0 0.00 0.00 0.00 71 1005.4
20260504014516 51 162 5.0 12.0 0.00 0.00 0.00 70 1005.3
20260504014017 51 167 6.0 12.0 0.00 0.00 0.00 70 1005.2
20260504013516 51 163 6.0 15.0 0.00 0.00 0.00 70 1005.2
20260504013016 51 156 7.0 15.0 0.00 0.00 0.00 69 1005.1
20260504012517 51 165 6.0 15.0 0.00 0.00 0.00 69 1005.1
20260504012016 52 171 7.0 16.0 0.00 0.00 0.00 69 1005.2
20260504011517 52 170 7.0 16.0 0.00 0.00 0.00 68 1005.2
20260504011016 52 170 8.0 16.0 0.00 0.00 0.00 68 1005.2
20260504010516 52 171 7.0 16.0 0.00 0.00 0.00 68 1005.3
20260504010036 52 173 7.0 14.0 0.00 0.00 0.00 68 1005.3
20260504005517 52 173 7.0 15.0 0.00 0.00 0.00 67 1005.3
20260504005017 52 171 7.0 15.0 0.00 0.00 0.00 66 1005.3
20260504004516 52 173 7.0 17.0 0.00 0.00 0.00 66 1005.3
20260504004016 53 179 8.0 17.0 0.00 0.00 0.00 66 1005.3
20260504003516 53 168 7.0 16.0 0.00 0.00 0.00 65 1005.4
20260504003016 53 171 9.0 17.0 0.00 0.00 0.00 65 1005.3
20260504002516 53 176 8.0 17.0 0.00 0.00 0.00 64 1005.4
20260504002017 53 181 9.0 17.0 0.00 0.00 0.00 64 1005.5
20260504001516 53 176 6.0 17.0 0.00 0.00 0.00 64 1005.5
20260504001016 54 183 7.0 17.0 0.00 0.00 0.00 63 1005.6
20260504000536 54 191 8.0 17.0 0.00 0.00 0.00 62 1005.7
20260504000037 54 176 9.0 18.0 0.00 0.00 0.00 62 1005.7
20260503235516 54 190 7.0 25.0 0.00 0.00 0.00 62 1005.8
20260503235017 54 179 9.0 25.0 0.00 0.00 0.00 61 1005.7
20260503234537 55 188 10.0 19.0 0.00 0.00 0.00 61 1005.8
20260503234016 55 181 7.0 18.0 0.00 0.00 0.00 60 1005.8
20260503233537 55 188 9.0 22.0 0.00 0.00 0.00 60 1005.8
20260503233036 55 195 12.0 22.0 0.00 0.00 0.00 59 1005.8
20260503232517 55 192 10.0 21.0 0.00 0.00 0.00 59 1005.8
20260503232037 56 193 10.0 19.0 0.00 0.00 0.00 58 1005.9
20260503231516 56 192 9.0 20.0 0.00 0.00 0.00 59 1006.0
20260503231036 56 190 9.0 20.0 0.00 0.00 0.00 58 1006.0
20260503230517 56 188 7.0 20.0 0.00 0.00 0.00 58 1006.1
20260503230016 56 199 9.0 20.0 0.00 0.00 0.00 59 1006.2
20260503225516 55 183 8.0 18.0 0.00 0.00 0.00 60 1006.3
20260503225016 55 193 8.0 19.0 0.00 0.00 0.00 61 1006.4
20260503224516 54 190 11.0 26.0 0.00 0.00 0.00 60 1006.5
20260503224016 54 179 13.0 26.0 0.00 0.00 0.00 60 1006.6
20260503223536 55 193 8.0 19.0 0.00 0.00 0.00 61 1006.6
20260503223036 54 169 8.0 19.0 0.00 0.00 0.00 62 1006.8
20260503222516 54 179 10.0 17.0 0.00 0.00 0.00 62 1006.9
20260503222016 54 167 10.0 19.0 0.00 0.00 0.00 62 1007.0
20260503221517 53 162 10.0 19.0 0.00 0.00 0.00 62 1007.1
20260503221016 53 185 8.0 17.0 0.00 0.00 0.00 63 1007.2
20260503220516 53 184 9.0 22.0 0.00 0.00 0.00 63 1007.3
20260503220016 53 182 11.0 22.0 0.00 0.00 0.00 62 1007.4
20260503215516 53 192 9.0 19.0 0.00 0.00 0.00 63 1007.4
20260503215016 53 179 10.0 18.0 0.00 0.00 0.00 65 1007.4
20260503214517 52 182 7.0 16.0 0.00 0.00 0.00 65 1007.4
20260503214016 52 200 9.0 16.0 0.00 0.00 0.00 65 1007.4
20260503213516 52 170 9.0 16.0 0.00 0.00 0.00 64 1007.5
20260503213016 52 193 6.0 12.0 0.00 0.00 0.00 64 1007.5
20260503212516 52 202 6.0 12.0 0.00 0.00 0.00 64 1007.8
20260503212015 52 208 5.0 10.0 0.00 0.00 0.00 64 1007.6
20260503211516 52 207 5.0 23.0 0.00 0.00 0.00 64 1007.8
20260503211036 52 194 7.0 23.0 0.00 0.00 0.00 63 1007.7
20260503210516 53 201 8.0 16.0 0.00 0.00 0.00 63 1007.8
20260503210016 53 190 10.0 19.0 0.00 0.00 0.00 63 1007.8
20260503205516 53 182 12.0 19.0 0.00 0.00 0.00 63 1007.9
20260503205015 53 198 8.0 18.0 0.00 0.00 0.00 63 1007.9
20260503204516 53 201 8.0 18.0 0.00 0.00 0.00 63 1007.9
20260503204036 53 207 10.0 17.0 0.00 0.00 0.00 62 1008.1
20260503203536 53 201 7.0 17.0 0.00 0.00 0.00 63 1008.2
20260503203016 53 211 6.0 19.0 0.00 0.00 0.00 63 1008.3
20260503202515 53 220 9.0 19.0 0.00 0.00 0.00 62 1008.4
20260503202016 53 229 9.0 18.0 0.00 0.00 0.00 62 1008.6
20260503201556 53 226 9.0 17.0 0.00 0.00 0.00 62 1008.6
20260503201015 53 219 8.0 21.0 0.00 0.00 0.00 61 1008.8
20260503200515 53 235 13.0 21.0 0.00 0.00 0.00 61 1008.8
20260503200016 53 230 10.0 22.0 0.00 0.00 0.00 61 1008.8
20260503195516 53 226 12.0 22.0 0.00 0.00 0.00 61 1008.9
20260503195015 54 236 12.0 20.0 0.00 0.00 0.00 60 1009.0
20260503194535 54 241 9.0 23.0 0.00 0.00 0.00 60 1009.1
20260503194015 54 236 14.0 23.0 0.00 0.00 0.00 59 1009.0
20260503193515 54 236 14.0 28.0 0.00 0.00 0.00 59 1009.2
20260503193016 54 245 16.0 28.0 0.00 0.00 0.00 58 1009.3
20260503192536 54 238 16.0 27.0 0.00 0.00 0.00 57 1009.4
20260503192016 55 240 19.0 27.0 0.00 0.00 0.00 56 1009.4
20260503191515 55 232 16.0 30.0 0.00 0.00 0.00 56 1009.5
20260503191016 55 243 19.0 30.0 0.00 0.00 0.00 55 1009.5
20260503190515 56 252 21.0 30.0 0.00 0.00 0.00 55 1009.4
20260503190015 56 247 21.0 30.0 0.00 0.00 0.00 54 1009.5
20260503185516 56 257 17.0 27.0 0.00 0.00 0.00 53 1009.5
20260503185035 56 241 16.0 28.0 0.00 0.00 0.00 54 1009.5
20260503184517 57 252 19.0 28.0 0.00 0.00 0.00 51 1009.5
20260503184015 58 251 18.0 32.0 0.00 0.00 0.00 51 1009.4
20260503183536 58 251 17.0 32.0 0.00 0.00 0.00 51 1009.5
20260503183016 58 228 17.0 30.0 0.00 0.00 0.00 50 1009.7
20260503182515 58 249 18.0 32.0 0.00 0.00 0.00 49 1009.5
20260503182016 58 244 21.0 32.0 0.00 0.00 0.00 49 1009.6
20260503181515 58 250 19.0 30.0 0.00 0.00 0.00 48 1009.5
20260503181016 58 256 20.0 30.0 0.00 0.00 0.00 49 1009.5
20260503180515 58 237 17.0 30.0 0.00 0.00 0.00 50 1009.7
20260503180015 58 243 19.0 34.0 0.00 0.00 0.00 49 1009.7
20260503175517 58 251 20.0 34.0 0.00 0.00 0.00 49 1009.6
20260503175015 58 247 20.0 33.0 0.00 0.00 0.00 49 1009.6
20260503174516 58 248 20.0 30.0 0.00 0.00 0.00 49 1009.7
20260503174016 58 246 19.0 34.0 0.00 0.00 0.00 50 1009.8
20260503173535 57 248 21.0 34.0 0.00 0.00 0.00 49 1009.9
20260503173015 57 257 16.0 29.0 0.00 0.00 0.00 49 1010.0
20260503172515 57 240 17.0 35.0 0.00 0.00 0.00 48 1010.1
20260503172015 57 238 18.0 35.0 0.00 0.00 0.00 49 1010.2
20260503171515 57 233 17.0 31.0 0.00 0.00 0.00 48 1010.3
20260503171035 57 244 16.0 34.0 0.00 0.00 0.00 49 1010.3
20260503170515 57 241 18.0 34.0 0.00 0.00 0.00 49 1010.3
20260503170136 57 226 15.0 26.0 0.00 0.00 0.00 49 1010.3
20260503150516 53 223 12.0 24.0 0.00 0.00 0.00 48 1011.1
20260503131017 47 227 6.0 10.0 0.00 0.00 0.00 61 1012.0
20260503130517 46 234 6.0 10.0 0.00 0.00 0.00 62 1012.0
20260503110516 38 114 0.0 3.0 0.00 0.00 0.00 72 1011.8
20260503081537 40 201 3.0 6.0 0.00 0.00 0.00 64 1012.3
20260503081017 40 204 1.0 6.0 0.00 0.00 0.00 64 1012.3
20260503080516 40 224 2.0 6.0 0.00 0.00 0.00 63 1012.3
20260503072517 41 201 3.0 8.0 0.00 0.00 0.00 61 1012.5
20260503072017 41 211 4.0 8.0 0.00 0.00 0.00 61 1012.5
20260503071536 41 217 3.0 7.0 0.00 0.00 0.00 61 1012.6
20260503071016 41 196 3.0 7.0 0.00 0.00 0.00 60 1012.6
20260503070516 41 198 2.0 7.0 0.00 0.00 0.00 60 1012.7
20260503055016 38 149 2.0 4.0 0.00 0.00 0.00 61 1013.5
20260503054516 38 147 2.0 4.0 0.00 0.00 0.00 61 1013.4
20260503054016 38 147 2.0 4.0 0.00 0.00 0.00 61 1013.5
20260503053516 38 148 1.0 4.0 0.00 0.00 0.00 61 1013.5
20260503053016 38 161 2.0 6.0 0.00 0.00 0.00 60 1013.5
20260503052516 38 150 2.0 6.0 0.00 0.00 0.00 61 1013.6
20260503052036 38 144 2.0 5.0 0.00 0.00 0.00 61 1013.7
20260503051516 38 160 1.0 4.0 0.00 0.00 0.00 61 1013.6
20260503051016 38 154 2.0 4.0 0.00 0.00 0.00 61 1013.8
20260503050516 38 145 2.0 5.0 0.00 0.00 0.00 62 1013.8
20260503050016 38 151 2.0 5.0 0.00 0.00 0.00 62 1013.9
20260503045517 38 148 1.0 5.0 0.00 0.00 0.00 63 1013.9
20260503045016 38 152 2.0 5.0 0.00 0.00 0.00 63 1014.0
20260503044516 38 138 1.0 3.0 0.00 0.00 0.00 63 1014.0
20260503044017 38 135 1.0 3.0 0.00 0.00 0.00 63 1014.0
20260503043516 38 141 1.0 4.0 0.00 0.00 0.00 64 1013.9
20260503043015 38 163 1.0 4.0 0.00 0.00 0.00 63 1014.1
20260503042516 38 151 1.0 3.0 0.00 0.00 0.00 62 1014.1
20260503042016 38 156 1.0 3.0 0.00 0.00 0.00 62 1014.1
20260503041516 38 167 1.0 4.0 0.00 0.00 0.00 62 1014.2
20260503041016 38 165 1.0 4.0 0.00 0.00 0.00 61 1014.2
20260503040516 38 150 2.0 4.0 0.00 0.00 0.00 62 1014.3
20260503040036 39 147 2.0 3.0 0.00 0.00 0.00 62 1014.3
20260503035516 39 149 1.0 3.0 0.00 0.00 0.00 61 1014.3
20260503035017 39 147 1.0 3.0 0.00 0.00 0.00 61 1014.3
20260503034516 39 156 1.0 2.0 0.00 0.00 0.00 61 1014.4
20260503034016 38 156 1.0 3.0 0.00 0.00 0.00 61 1014.4
20260503033516 38 157 1.0 3.0 0.00 0.00 0.00 62 1014.4
20260503033057 38 153 1.0 4.0 0.00 0.00 0.00 62 1014.5
20260503032536 38 164 1.0 4.0 0.00 0.00 0.00 63 1014.5
20260503032017 38 159 1.0 4.0 0.00 0.00 0.00 65 1014.6
20260503031516 38 157 1.0 4.0 0.00 0.00 0.00 65 1014.6
20260503031016 38 152 1.0 4.0 0.00 0.00 0.00 65 1014.6
20260503030516 38 165 1.0 4.0 0.00 0.00 0.00 66 1014.6
20260503030016 38 167 1.0 3.0 0.00 0.00 0.00 66 1014.7
20260503025517 38 172 1.0 3.0 0.00 0.00 0.00 66 1014.6
20260503025016 38 172 1.0 3.0 0.00 0.00 0.00 65 1014.7
20260503024516 39 172 1.0 4.0 0.00 0.00 0.00 65 1014.7
20260503024016 39 171 1.0 4.0 0.00 0.00 0.00 63 1014.8
20260503023517 39 170 1.0 4.0 0.00 0.00 0.00 63 1014.8
20260503023016 39 219 1.0 3.0 0.00 0.00 0.00 61 1014.9
20260503022516 40 220 1.0 2.0 0.00 0.00 0.00 61 1014.9
20260503022036 40 219 0.0 2.0 0.00 0.00 0.00 60 1014.9